Temperature
19 21 21 22 22 20 20 19 19 20 19 19 18 18 18 18 18 18 18 19 19 19 19 18 18 18 18 18 18 17 17 17 17 17 17 16 16 16 16 16 15 15 15 15
21 21 21 22 22 21 21 20 20 20 19 18 18 18 18 17 18 18 18 18 19 19 18 18 18 18 18 18 17 17 17 17 16 16 16 16 15 15 15 15 15 15 15 15
18 20 22 21 21 21 21 20 20 20 20 17 17 17 17 17 18 18 18 18 18 18 18 18 18 18 18 17 17 16 16 16 16 16 16 15 15 15 15 14 14 15 14 14
17 20 21 20 20 21 21 20 19 19 18 17 17 18 18 19 19 19 18 18 18 18 18 18 18 18 17 17 16 16 16 16 16 15 15 15 15 14 14 14 14 14 14 14
15 18 19 20 20 20 20 20 19 18 17 17 17 17 17 18 19 19 19 19 18 18 18 18 17 17 17 16 16 16 16 15 15 15 15 15 14 14 14 14 14 13 13 13
15 18 19 20 20 20 20 20 18 17 17 16 17 17 17 18 19 18 18 18 18 18 18 17 17 17 16 16 16 15 15 15 15 15 15 14 14 14 13 13 13 13 13 13
15 17 18 18 18 19 20 20 19 18 17 17 17 18 18 18 18 18 18 18 17 17 17 17 16 16 16 15 15 15 15 15 14 14 14 14 13 13 13 13 13 12 12 12
14 17 18 17 17 18 18 18 18 18 18 17 17 17 18 18 17 17 17 17 17 16 16 16 16 16 15 15 15 14 14 14 14 14 13 13 13 13 13 12 12 12 12 12
14 15 15 15 15 17 17 17 18 18 17 17 17 16 16 16 16 16 16 16 16 16 16 15 15 15 15 15 14 14 14 14 13 13 13 12 12 12 12 12 12 11 11 11
13 14 14 15 16 16 17 18 18 18 17 17 17 16 16 15 15 16 16 16 16 15 15 15 14 14 14 14 14 14 13 13 13 12 12 12 11 11 11 11 11 11 11 10
13 13 14 15 15 16 17 17 17 17 17 17 17 16 15 15 15 15 15 15 15 15 15 14 14 14 14 13 13 13 13 12 12 12 11 11 11 11 10 10 10 10 10 10
13 14 13 14 15 16 16 16 17 16 16 16 16 16 15 15 15 15 15 15 14 14 14 14 13 13 13 13 13 12 12 12 11 11 11 11 10 10 10 10 9 9 9 9
14 15 14 14 15 15 16 16 16 16 16 15 15 15 15 14 14 14 14 14 14 14 13 13 13 13 12 12 12 12 12 11 11 11 10 10 10 10 9 9 9 9 9 9
14 14 13 14 14 15 15 15 15 15 15 15 14 14 14 14 14 13 13 13 13 13 13 13 13 12 12 11 11 11 11 11 11 10 10 9 9 9 9 9 9 8 8 8
14 14 14 14 14 14 14 14 14 14 14 14 14 14 14 14 13 13 13 12 12 12 12 12 12 11 11 11 11 11 11 10 10 10 9 9 9 9 8 8 8 8 7 7
13 13 13 13 13 13 13 13 13 13 13 13 13 13 13 13 13 12 12 12 12 12 11 11 11 11 11 10 10 10 10 10 10 9 9 9 9 8 8 8 7 7 7 7
13 12 13 13 13 13 13 13 13 13 12 13 12 12 12 12 12 11 11 11 11 11 11 11 10 10 10 10 10 10 10 9 9 9 9 8 8 8 8 7 7 7 7 6
14 14 14 14 13 13 13 13 13 12 12 12 12 11 11 11 11 11 11 11 10 10 10 10 10 10 10 10 9 9 9 9 9 9 8 8 8 7 7 7 7 7 6 6
13 13 13 13 13 13 12 12 12 12 12 11 11 11 11 11 11 10 10 10 10 10 10 10 10 9 9 9 9 9 9 9 8 8 8 8 7 7 7 7 7 6 6 6
13 13 12 12 12 12 12 12 11 11 11 11 11 10 10 10 10 10 10 9 9 9 9 9 9 9 9 9 9 9 9 8 8 8 8 7 7 7 7 7 6 6 6 6
12 12 12 12 11 11 11 11 11 11 11 10 10 10 10 10 9 9 9 9 9 9 9 9 9 9 9 9 9 9 8 8 8 8 8 7 7 7 7 6 6 6 6 5
11 11 11 11 11 11 11 11 11 11 10 10 10 10 10 9 9 9 9 9 9 9 9 9 9 9 9 9 8 8 8 8 8 8 7 7 7 7 7 6 6 6 6 5
11 11 11 11 11 10 10 10 10 10 10 10 10 10 9 9 9 9 9 9 9 8 8 8 8 8 8 8 8 8 8 8 8 8 7 7 7 7 7 6 6 6 6 5
10 10 10 10 10 10 10 9 9 9 9 9 9 9 9 9 9 9 9 9 8 8 8 8 8 8 8 8 8 8 8 8 8 8 7 7 7 7 6 6 6 6 5 5
10 10 10 10 10 9 9 9 9 9 9 9 9 9 9 9 9 9 8 8 8 8 8 8 8 8 8 8 8 8 8 8 7 7 7 7 7 6 6 6 6 6 5 5
10 9 9 9 9 9 9 9 9 9 9 8 8 8 8 8 8 8 8 8 8 8 8 8 8 8 8 8 8 8 7 7 7 7 7 7 7 6 6 6 6 6 5 5
9 9 9 9 9 9 9 9 9 9 8 8 8 8 8 8 8 8 8 8 8 8 8 8 8 8 8 8 7 7 7 7 7 7 7 7 6 6 6 6 6 5 5 5
Wind_Speed
5 4 5 4 6 8 7 9 10 10 9 10 10 10 8 8 9 9 8 7 7 6 5 5 5 4 5 5 5 5 6 5 4 4 4 4 4 4 4 3 3 2 2 2
1 1 4 3 4 7 6 6 6 4 7 6 5 7 7 9 10 10 9 8 7 7 6 5 5 5 6 6 5 6 6 5 5 5 5 5 4 4 5 5 4 4 4 3
3 1 3 3 5 6 5 5 8 9 8 6 7 10 11 11 11 10 10 9 8 7 7 6 5 6 6 6 6 6 6 6 5 5 5 5 5 5 5 5 5 5 5 5
3 4 5 7 3 3 4 4 5 5 5 9 8 7 6 7 10 10 9 9 7 7 6 6 6 7 7 8 7 7 6 6 5 5 6 5 5 5 5 5 5 5 5 5
5 4 3 5 2 3 4 4 4 5 6 7 10 7 2 3 6 8 8 8 7 6 6 7 7 8 9 8 8 7 6 6 5 5 6 6 5 5 4 5 5 5 4 5
5 5 7 7 3 1 3 4 5 7 10 11 10 7 6 6 8 9 9 8 8 8 8 8 6 8 9 8 7 6 6 5 5 5 5 5 5 4 4 5 6 5 6 6
4 4 6 5 3 2 5 7 4 7 10 11 7 5 8 11 10 10 10 10 9 8 7 6 6 8 9 8 6 5 6 6 6 6 5 5 5 5 5 5 7 7 8 8
5 4 6 3 1 6 6 2 3 6 8 8 7 10 11 11 12 12 11 11 10 9 7 6 6 9 9 7 6 6 7 8 7 6 6 5 6 6 6 6 7 7 8 8
6 6 4 3 5 5 2 2 3 5 7 10 10 10 11 10 11 10 11 10 9 9 8 6 5 7 9 6 7 8 8 8 7 8 8 7 7 7 6 6 6 6 6 7
1 4 4 4 4 3 1 2 3 7 10 10 11 11 11 11 10 10 9 10 9 10 9 7 6 6 7 7 7 9 9 8 7 8 8 8 7 6 6 5 5 5 5 6
2 4 4 4 4 3 2 4 7 8 8 10 14 13 11 11 10 10 9 8 9 9 9 8 7 7 7 7 9 10 9 8 8 7 8 9 9 8 7 6 4 5 4 4
6 5 4 4 4 1 3 5 8 9 9 9 11 12 11 10 9 9 9 8 9 9 9 8 7 7 6 6 8 10 8 7 6 6 7 7 8 9 15 12 14 13 10 7
4 2 3 2 2 1 3 5 7 9 10 10 9 11 12 10 9 9 9 9 9 9 8 8 8 8 6 6 8 9 9 7 6 6 7 6 6 7 8 10 15 16 14 12
4 2 2 2 1 2 5 7 10 10 10 10 9 10 11 11 11 10 9 8 9 9 9 8 9 8 6 7 8 9 9 9 8 6 6 6 6 6 6 7 7 7 10 13
3 3 4 2 4 4 5 8 11 10 11 11 10 11 11 12 11 10 9 9 10 10 9 9 9 7 6 8 9 9 8 7 7 7 7 7 7 7 7 7 7 6 6 7
3 4 5 6 6 6 7 9 10 10 10 11 10 10 11 11 11 10 9 9 10 10 9 9 9 7 7 8 9 8 7 11 9 7 7 7 6 7 6 6 6 5 5 4
6 6 7 9 8 8 8 8 9 10 10 11 11 12 12 12 12 11 9 8 9 9 8 9 8 7 8 8 9 7 7 9 11 9 7 6 6 6 6 6 5 5 4 4
3 5 7 9 10 10 10 11 11 11 11 11 12 12 12 12 11 11 10 10 11 10 8 7 8 8 8 8 8 7 7 7 6 7 7 6 6 6 6 6 6 6 4 5
5 6 7 8 9 10 11 11 11 11 12 12 12 11 10 10 10 10 10 10 10 9 5 6 10 9 8 9 9 7 8 8 7 6 6 7 6 5 5 5 5 4 4 4
7 8 9 9 9 10 11 11 12 12 12 12 13 12 11 10 10 10 10 8 5 4 6 7 8 8 8 8 10 7 7 7 7 6 6 5 5 5 5 5 4 4 4 3
8 9 10 10 10 10 10 11 12 12 12 12 12 12 11 10 9 9 9 7 4 5 7 9 7 6 6 7 9 7 7 7 6 6 5 5 5 5 4 4 4 4 3 3
7 9 10 11 11 11 9 9 11 12 12 11 12 12 12 10 9 8 7 5 5 8 6 5 5 7 8 9 6 6 6 6 6 5 5 5 5 5 4 4 3 3 3 3
7 8 10 10 11 11 10 10 11 11 11 11 11 11 10 8 7 8 7 4 5 8 6 5 8 10 11 7 6 6 6 6 5 5 5 5 5 5 4 4 3 3 3 3
8 9 10 10 12 12 11 10 9 9 10 10 9 10 10 8 6 4 6 8 9 9 6 7 10 10 9 5 5 5 5 5 4 4 4 4 4 4 4 4 4 3 4 4
9 10 10 11 10 9 10 10 11 11 10 8 8 8 6 5 6 6 6 7 9 8 6 7 9 9 6 5 5 4 4 4 4 5 4 4 4 4 4 4 4 4 4 4
8 8 7 8 8 8 8 8 8 7 8 8 6 5 6 6 7 7 6 7 8 8 6 4 5 5 4 4 4 4 4 4 4 4 4 4 4 4 4 4 4 4 4 5
9 8 8 8 7 7 7 7 8 7 7 8 7 5 6 6 6 7 7 6 6 5 5 4 4 4 4 4 4 4 3 4 4 4 4 3 3 4 4 5 5 5 5 6
Wind_Direction
212 203 167 178 174 166 171 177 179 219 218 232 208 193 181 165 155 152 148 144 143 137 133 131 128 124 116 108 102 101 99 91 83 76 70 63 57 54 52 51 50 52 61 52
213 189 176 180 188 175 183 173 190 200 238 237 176 157 163 164 162 163 160 156 148 139 137 133 132 125 113 106 99 96 96 92 85 81 76 68 59 54 53 49 49 54 57 58
199 243 111 219 210 185 187 187 172 197 223 165 162 175 178 173 169 167 164 156 149 146 143 137 132 124 122 112 102 97 93 88 84 84 79 70 67 61 55 52 53 55 52 56
140 122 190 239 259 194 176 205 207 214 197 178 176 159 154 163 166 162 157 153 147 141 130 123 119 112 107 103 102 100 93 85 80 79 76 67 62 56 50 54 59 58 54 57
125 153 241 288 243 166 166 236 217 191 163 143 125 100 101 163 155 154 150 143 136 128 122 122 120 119 111 104 102 98 92 85 81 84 82 75 66 56 51 60 60 60 57 57
128 143 204 231 249 205 124 269 229 179 161 150 136 155 200 160 132 126 121 119 119 114 110 112 116 118 113 109 105 99 93 87 83 86 89 83 75 66 61 65 64 67 64 59
145 173 240 249 282 115 164 239 211 172 164 161 171 178 146 133 125 123 119 116 112 108 107 111 116 116 112 108 103 100 94 86 81 81 84 82 76 72 73 75 72 68 66 57
142 160 231 297 63 178 217 256 169 168 160 144 123 119 127 130 129 126 121 117 114 111 103 100 110 116 114 110 106 101 96 88 80 74 79 79 77 72 72 79 80 76 70 61
184 205 250 276 252 269 241 203 187 160 142 132 129 132 132 130 126 123 122 118 116 114 106 96 98 117 120 116 112 106 97 89 85 80 72 70 75 74 69 69 80 80 79 72
257 278 289 300 301 310 282 198 167 145 141 138 136 136 132 131 128 123 119 119 118 115 112 104 98 101 110 114 112 106 98 91 89 89 79 68 65 65 71 68 80 86 87 83
252 279 315 320 329 336 51 95 115 116 124 135 134 137 137 135 132 127 120 116 116 119 119 117 112 105 105 111 113 106 101 99 95 91 92 81 70 58 63 53 76 99 98 97
220 225 202 263 305 335 109 115 126 120 113 120 131 133 129 127 124 122 120 119 116 114 117 119 115 109 104 109 115 113 107 103 102 100 95 94 92 76 57 64 66 69 76 87
226 219 200 250 309 11 111 117 117 117 123 123 121 124 123 120 115 116 119 121 121 123 123 122 118 111 108 111 113 113 116 115 107 104 102 100 98 97 87 64 60 60 61 72
212 175 215 234 203 102 113 112 108 105 108 115 116 116 117 115 113 114 119 120 120 120 118 117 114 108 108 111 108 107 108 110 109 105 103 99 95 93 94 94 82 62 50 61
235 210 197 153 120 115 117 120 117 117 115 112 115 119 120 120 118 117 116 118 116 114 115 116 111 106 105 109 108 108 107 109 107 104 101 99 98 94 92 91 91 85 77 64
176 154 151 143 138 134 131 128 127 126 122 118 119 118 116 115 114 114 114 118 120 119 119 116 112 111 111 110 108 104 105 113 111 108 106 105 103 103 101 99 95 89 84 78
163 166 162 153 152 151 144 135 132 130 125 123 123 121 117 115 113 111 108 106 107 108 111 113 113 112 111 112 112 110 108 112 112 109 108 108 107 106 107 105 100 93 80 74
190 171 162 155 152 145 134 127 127 127 126 124 124 122 122 123 122 120 118 112 104 96 94 106 112 111 109 110 108 109 109 108 110 111 110 109 108 107 106 105 105 101 89 80
136 135 133 136 138 135 132 129 130 128 124 125 122 120 118 117 117 117 116 114 115 113 109 111 115 112 113 118 115 113 116 116 111 109 111 114 112 110 110 110 110 110 110 106
114 118 121 122 122 125 126 125 124 123 124 124 120 118 117 117 118 116 110 103 103 118 126 121 116 115 117 123 121 120 124 124 123 122 119 121 122 121 119 119 119 119 118 117
117 118 121 120 116 114 120 124 126 125 125 127 128 127 124 120 118 117 115 109 92 107 117 117 116 119 119 124 122 123 127 129 132 133 134 134 132 130 130 130 131 132 133 133
121 123 123 122 120 117 116 118 122 123 123 123 122 122 121 119 114 105 97 115 124 123 120 119 119 124 129 125 125 128 131 135 137 139 141 144 145 146 148 150 150 152 152 153
118 122 122 124 123 120 115 115 119 122 124 125 127 128 125 123 125 125 117 113 120 120 117 118 124 127 126 122 126 130 134 138 142 146 150 154 157 158 161 165 166 165 164 167
114 115 116 117 116 116 115 113 111 112 113 113 116 122 123 118 99 88 113 121 122 119 115 122 125 126 122 120 126 131 135 138 140 142 144 146 150 156 163 169 174 177 179 180
116 116 117 119 118 119 117 114 111 109 107 106 105 106 108 115 122 122 120 124 127 122 116 122 126 125 123 126 133 138 143 149 150 151 153 155 160 166 172 176 181 185 190 194
116 114 112 112 117 120 121 119 118 119 118 115 108 105 105 105 111 114 115 120 121 119 116 116 123 125 128 133 139 145 146 148 151 155 161 164 170 174 180 186 191 197 203 205
104 105 105 103 104 113 119 122 126 128 129 129 123 118 117 117 117 118 117 116 117 116 116 116 119 125 132 136 139 141 145 153 158 160 167 173 177 185 195 199 204 208 210 211
Height
1481 1477 1477 1478 1481 1487 1490 1496 1504 1499 1497 1488 1485 1486 1488 1491 1493 1496 1498 1500 1503 1506 1508 1511 1513 1516 1517 1518 1520 1521 1521 1523 1523 1523 1524 1524 1524 1523 1523 1523 1522 1522 1522 1522
1479 1476 1477 1478 1478 1481 1483 1486 1489 1488 1489 1479 1480 1484 1487 1490 1492 1495 1498 1500 1503 1506 1508 1511 1513 1515 1517 1518 1520 1521 1522 1523 1523 1524 1524 1524 1523 1523 1522 1522 1521 1521 1521 1521
1489 1480 1478 1487 1478 1478 1478 1479 1482 1486 1481 1478 1480 1482 1484 1488 1490 1493 1497 1500 1503 1506 1508 1511 1513 1515 1517 1519 1520 1522 1522 1523 1524 1525 1524 1524 1524 1523 1523 1522 1522 1521 1521 1521
1491 1486 1496 1484 1471 1471 1473 1474 1474 1473 1473 1474 1475 1479 1483 1486 1489 1493 1496 1500 1503 1506 1508 1511 1513 1516 1518 1519 1521 1522 1523 1524 1524 1525 1525 1525 1524 1524 1523 1522 1522 1522 1521 1521
1495 1495 1489 1477 1470 1470 1473 1474 1470 1471 1472 1474 1477 1481 1485 1486 1489 1492 1495 1499 1503 1506 1508 1511 1513 1515 1517 1519 1520 1522 1523 1523 1524 1525 1525 1525 1525 1525 1524 1523 1523 1523 1523 1523
1492 1493 1495 1478 1467 1466 1470 1475 1467 1468 1469 1473 1476 1483 1483 1484 1488 1492 1496 1500 1503 1506 1508 1511 1513 1515 1517 1519 1520 1521 1522 1523 1524 1524 1525 1525 1525 1525 1525 1525 1524 1524 1524 1525
1488 1488 1483 1469 1465 1467 1480 1476 1464 1465 1467 1470 1472 1475 1478 1482 1487 1491 1495 1499 1503 1506 1508 1511 1513 1515 1517 1519 1520 1521 1523 1523 1524 1525 1525 1526 1526 1526 1526 1526 1526 1525 1526 1526
1488 1488 1484 1466 1465 1468 1468 1462 1462 1463 1466 1469 1471 1475 1478 1482 1486 1490 1494 1498 1502 1506 1508 1511 1513 1515 1517 1519 1520 1522 1522 1523 1524 1525 1526 1526 1527 1527 1527 1528 1527 1527 1528 1528
1478 1478 1469 1466 1465 1463 1462 1462 1462 1463 1466 1469 1472 1475 1479 1483 1486 1490 1494 1497 1502 1505 1508 1511 1514 1516 1517 1519 1520 1522 1522 1523 1525 1526 1526 1527 1528 1528 1529 1529 1529 1530 1530 1530
1473 1469 1466 1464 1463 1461 1461 1461 1462 1464 1466 1469 1472 1476 1480 1484 1487 1491 1494 1497 1501 1505 1508 1511 1513 1515 1517 1519 1520 1522 1523 1524 1525 1526 1527 1528 1529 1530 1530 1530 1531 1532 1532 1532
1471 1467 1465 1463 1462 1462 1461 1461 1462 1465 1467 1470 1473 1476 1480 1484 1488 1491 1495 1498 1501 1505 1508 1511 1513 1516 1517 1519 1520 1522 1523 1524 1526 1527 1528 1529 1530 1531 1532 1532 1533 1534 1534 1535
1469 1464 1465 1464 1463 1462 1462 1462 1463 1465 1468 1471 1474 1477 1481 1485 1488 1492 1495 1499 1502 1505 1509 1511 1513 1515 1517 1519 1521 1523 1524 1525 1527 1528 1530 1531 1532 1533 1534 1535 1535 1536 1537 1538
1462 1462 1462 1462 1462 1463 1462 1463 1464 1466 1469 1472 1475 1478 1481 1485 1489 1493 1497 1500 1503 1506 1509 1511 1513 1515 1518 1520 1522 1524 1525 1526 1528 1530 1531 1533 1534 1535 1536 1537 1538 1539 1540 1541
1460 1460 1461 1461 1461 1462 1463 1464 1465 1468 1471 1474 1477 1479 1483 1486 1490 1494 1498 1501 1504 1507 1509 1512 1514 1516 1519 1521 1523 1525 1526 1528 1530 1531 1533 1535 1536 1537 1538 1540 1541 1542 1543 1544
1458 1458 1458 1459 1461 1462 1464 1465 1467 1469 1472 1475 1479 1482 1484 1487 1491 1495 1499 1502 1505 1508 1510 1513 1515 1518 1520 1523 1525 1527 1528 1530 1532 1533 1535 1537 1538 1540 1541 1542 1543 1545 1546 1547
1455 1456 1457 1458 1459 1462 1464 1466 1468 1471 1473 1476 1480 1483 1486 1490 1493 1496 1500 1503 1506 1508 1511 1514 1516 1519 1522 1525 1527 1529 1531 1532 1534 1536 1537 1539 1541 1542 1543 1545 1546 1547 1549 1549
1452 1453 1455 1456 1459 1461 1464 1467 1470 1472 1475 1478 1482 1485 1488 1491 1495 1498 1502 1505 1508 1510 1513 1516 1519 1521 1524 1527 1529 1531 1533 1535 1537 1538 1540 1542 1543 1545 1546 1547 1549 1550 1551 1552
1451 1452 1454 1455 1457 1460 1463 1467 1471 1474 1477 1480 1484 1487 1490 1493 1496 1500 1503 1506 1509 1512 1516 1519 1521 1524 1527 1529 1531 1533 1535 1537 1539 1540 1542 1544 1546 1547 1549 1550 1551 1552 1553 1554
1451 1453 1455 1457 1459 1461 1463 1467 1471 1475 1479 1482 1485 1489 1493 1496 1499 1502 1506 1509 1512 1514 1518 1521 1524 1527 1529 1532 1534 1536 1537 1539 1541 1543 1545 1546 1548 1550 1551 1552 1554 1555 1555 1556
1451 1454 1456 1458 1461 1463 1465 1469 1472 1476 1479 1484 1487 1491 1495 1499 1502 1505 1508 1511 1515 1518 1520 1523 1526 1529 1531 1534 1536 1538 1540 1542 1544 1545 1547 1549 1550 1552 1553 1554 1556 1557 1557 1558
1453 1455 1457 1460 1463 1465 1468 1471 1475 1478 1482 1486 1490 1494 1497 1501 1505 1508 1511 1514 1518 1521 1523 1526 1529 1531 1534 1536 1538 1541 1542 1544 1546 1548 1549 1551 1552 1554 1555 1556 1557 1558 1559 1560
1455 1457 1460 1462 1465 1468 1471 1475 1478 1481 1485 1489 1493 1497 1500 1503 1507 1511 1514 1517 1520 1523 1526 1529 1531 1533 1536 1538 1540 1542 1544 1546 1548 1549 1551 1552 1554 1555 1556 1557 1558 1559 1560 1561
1456 1459 1462 1465 1467 1471 1474 1478 1481 1485 1488 1492 1496 1499 1503 1506 1510 1513 1516 1520 1523 1526 1528 1531 1533 1536 1538 1540 1542 1544 1546 1548 1549 1550 1552 1553 1555 1556 1557 1558 1559 1560 1560 1561
1459 1462 1464 1467 1471 1474 1477 1481 1485 1488 1492 1496 1499 1503 1506 1509 1513 1516 1519 1522 1526 1528 1531 1533 1535 1538 1540 1542 1544 1546 1547 1549 1550 1552 1553 1554 1555 1556 1557 1558 1559 1560 1560 1561
1462 1465 1468 1470 1473 1477 1480 1484 1487 1491 1495 1499 1502 1506 1510 1513 1515 1518 1522 1525 1528 1531 1533 1535 1537 1540 1541 1543 1545 1547 1548 1550 1551 1552 1553 1554 1556 1556 1557 1558 1559 1559 1560 1560
1465 1468 1471 1474 1477 1480 1484 1487 1490 1494 1498 1501 1505 1509 1512 1515 1518 1522 1525 1528 1530 1533 1535 1537 1539 1541 1543 1544 1546 1548 1549 1551 1552 1553 1554 1555 1555 1556 1557 1557 1558 1558 1559 1559
1469 1472 1475 1478 1482 1485 1488 1491 1495 1498 1501 1504 1507 1511 1514 1518 1521 1524 1527 1530 1532 1534 1537 1539 1541 1543 1544 1546 1547 1548 1550 1551 1552 1553 1554 1554 1555 1555 1556 1556 1557 1557 1557 1557